Glens Falls, NY

8:10 AM EST on December 09, 2019 (GMT -0500)
Bennett Memorial

Weather History for KGFL - October, 2019

Change the Weather History Date:

Saturday, October 19, 2019

  Actual Average Record
Temperature  
Mean Temperature 42 °F 46 °F  
Max Temperature 56 °F 57 °F 79 °F (1947)
Min Temperature 28 °F 34 °F 16 °F (1974)
Degree Days  
Heating Degree Days 23 20  
Month to date heating degree days 295 312  
Since 1 July heating degree days 517 597  
Cooling Degree Days 0 0  
Month to date cooling degree days 0 0  
Year to date cooling degree days 416 351  
Moisture  
Dew Point 33 °F    
Average Humidity 73    
Maximum Humidity 100    
Minimum Humidity 46    
Precipitation  
Precipitation 0.00 in 0.11 in 3.06 in (2012)
Month to date precipitation 4.46 2.18  
Year to date precipitation 35.31 31.37  
Sea Level Pressure  
Sea Level Pressure 30.05 in    
Wind  
Wind Speed 2 mph (NE)    
Max Wind Speed 10 mph    
Max Gust Speed 14 mph    
Visibility 10 miles    
Events      
T = Trace of Precipitation, MM = Missing Value Source: NWS Daily Summary

Daily Weather History Graph

Daily Weather History Graph

Search for Another Location

Airport or City:

Astronomy

Oct. 19, 2019 Rise Set
Actual Time 7:12 AM EDT 6:05 PM EDT
Civil Twilight 6:43 AM EDT 6:34 PM EDT
Nautical Twilight 6:10 AM EDT 7:07 PM EDT
Astronomical Twilight 5:37 AM EDT 7:40 PM EDT
Moon 10:04 PM EDT (10/19) 12:49 PM EDT (10/19)
Length of Visible Light 11h 50m
Length of Day
10h 52m
Waning Gibbous, 70% of the Moon is Illuminated
Oct 19
Waning Gibbous
Oct 21
Last Quarter
Oct 27
New
Nov 4
First Quarter
Nov 12
Full

Hourly Weather History & Observations

Time (EDT) Temp. Windchill Dew Point Humidity Pressure Visibility Wind Dir Wind Speed Gust Speed Precip Events Conditions
12:53 AM 35.1 °F - 32.0 °F 89% 30.03 in 10.0 mi Calm Calm - N/A   Clear
1:53 AM 33.1 °F - 30.9 °F 92% 30.04 in 10.0 mi Calm Calm - N/A   Mostly Cloudy
2:53 AM 33.1 °F - 30.9 °F 92% 30.04 in 10.0 mi Calm Calm - N/A   Scattered Clouds
3:53 AM 30.9 °F - 30.0 °F 96% 30.05 in 7.0 mi Calm Calm - N/A   Clear
4:53 AM 30.9 °F 27.5 °F 28.9 °F 92% 30.05 in 10.0 mi NNW 3.5 mph - N/A   Clear
5:53 AM 28.9 °F 25.2 °F 28.0 °F 96% 30.06 in 10.0 mi South 3.5 mph - N/A   Clear
6:53 AM 30.0 °F 25.2 °F 28.9 °F 96% 30.06 in 10.0 mi ENE 4.6 mph - N/A   Clear
7:53 AM 30.9 °F - 28.9 °F 92% 30.08 in 10.0 mi Calm Calm - N/A   Clear
8:53 AM 39.9 °F 36.7 °F 36.0 °F 86% 30.09 in 10.0 mi WNW 4.6 mph - N/A   Clear
9:53 AM 45.0 °F - 35.1 °F 68% 30.09 in 10.0 mi Calm Calm - N/A   Clear
10:53 AM 46.9 °F - 33.1 °F 59% 30.09 in 10.0 mi NNE 5.8 mph - N/A   Clear
11:53 AM 48.9 °F - 33.1 °F 54% 30.08 in 10.0 mi Calm Calm - N/A   Clear
12:53 PM 52.0 °F - 35.1 °F 53% 30.06 in 10.0 mi Variable 3.5 mph - N/A   Clear
1:53 PM 54.0 °F - 34.0 °F 47% 30.04 in 10.0 mi Variable 3.5 mph - N/A   Clear
2:53 PM 54.0 °F - 35.1 °F 49% 30.03 in 10.0 mi East 5.8 mph - N/A   Clear
3:53 PM 55.0 °F - 35.1 °F 47% 30.03 in 10.0 mi South 4.6 mph - N/A   Clear
4:53 PM 54.0 °F - 35.1 °F 49% 30.02 in 10.0 mi ESE 4.6 mph - N/A   Clear
5:53 PM 50.0 °F - 34.0 °F 54% 30.03 in 10.0 mi Calm Calm - N/A   Clear
6:53 PM 42.1 °F - 35.1 °F 76% 30.04 in 10.0 mi Calm Calm - N/A   Clear
7:53 PM 39.0 °F - 35.1 °F 86% 30.05 in 10.0 mi Calm Calm - N/A   Clear
8:53 PM 36.0 °F 33.3 °F 33.1 °F 89% 30.05 in 10.0 mi WNW 3.5 mph - N/A   Clear
9:53 PM 35.1 °F - 33.1 °F 92% 30.06 in 10.0 mi Calm Calm - N/A   Clear
10:53 PM 34.0 °F - 33.1 °F 96% 30.06 in 10.0 mi Calm Calm - N/A   Clear
11:53 PM 34.0 °F - 32.0 °F 92% 30.07 in 10.0 mi Calm Calm - N/A   Clear